| time (UTC) | temp F | wind direction | speed MPH | gust MPH | rain 1hr in | rain 24hr in | rain mn in | humidity % | barometer mb |
| 20260504081939 | 47 | 20 | 1.0 | 2.0 | 0.00 | 0.00 | 0.00 | 66 | 1014.0 |
| 20260504081436 | 48 | 30 | 2.0 | 3.0 | 0.00 | 0.00 | 0.00 | 64 | 1013.8 |
| 20260504080932 | 48 | 66 | 2.0 | 3.0 | 0.00 | 0.00 | 0.00 | 63 | 1013.9 |
| 20260504080429 | 48 | 83 | 2.0 | 3.0 | 0.00 | 0.00 | 0.00 | 64 | 1013.8 |
| 20260504070356 | 51 | 9 | 1.0 | 2.0 | 0.00 | 0.00 | 0.00 | 57 | 1013.8 |
| 20260504050738 | 59 | 141 | 0.0 | 1.0 | 0.00 | 0.00 | 0.00 | 43 | 1013.2 |
| 20260504050235 | 60 | 64 | 2.0 | 3.0 | 0.00 | 0.00 | 0.00 | 42 | 1012.9 |
| 20260504045732 | 61 | 24 | 1.0 | 2.0 | 0.00 | 0.00 | 0.00 | 39 | 1012.9 |
| 20260504045227 | 61 | 134 | 2.0 | 3.0 | 0.00 | 0.00 | 0.00 | 38 | 1013.0 |
| 20260504044725 | 61 | 121 | 0.0 | 3.0 | 0.00 | 0.00 | 0.00 | 38 | 1013.1 |
| 20260504044223 | 62 | 49 | 0.0 | 3.0 | 0.00 | 0.00 | 0.00 | 36 | 1012.8 |
| 20260504043720 | 63 | 58 | 0.0 | 2.0 | 0.00 | 0.00 | 0.00 | 36 | 1012.8 |
| 20260504043216 | 63 | 355 | 2.0 | 4.0 | 0.00 | 0.00 | 0.00 | 37 | 1012.8 |
| 20260504042714 | 63 | 147 | 1.0 | 2.0 | 0.00 | 0.00 | 0.00 | 35 | 1012.8 |
| 20260504042210 | 64 | 30 | 2.0 | 3.0 | 0.00 | 0.00 | 0.00 | 35 | 1012.8 |
| 20260504041706 | 64 | 117 | 0.0 | 1.0 | 0.00 | 0.00 | 0.00 | 35 | 1012.8 |
| 20260504041202 | 66 | 45 | 2.0 | 2.0 | 0.00 | 0.00 | 0.00 | 33 | 1012.5 |
| 20260504040659 | 67 | 88 | 2.0 | 3.0 | 0.00 | 0.00 | 0.00 | 32 | 1012.5 |
| 20260504040156 | 68 | 327 | 1.0 | 2.0 | 0.00 | 0.00 | 0.00 | 30 | 1012.5 |
| 20260504035652 | 69 | 50 | 0.0 | 2.0 | 0.00 | 0.00 | 0.00 | 29 | 1012.2 |
| 20260504035150 | 69 | 112 | 2.0 | 2.0 | 0.00 | 0.00 | 0.00 | 27 | 1012.2 |
| 20260504034647 | 71 | 62 | 0.0 | 1.0 | 0.00 | 0.00 | 0.00 | 28 | 1012.5 |
| 20260504034144 | 72 | 162 | 0.0 | 4.0 | 0.00 | 0.00 | 0.00 | 24 | 1012.1 |
| 20260504033642 | 71 | 62 | 0.0 | 1.0 | 0.00 | 0.00 | 0.00 | 26 | 1011.9 |
| 20260504033139 | 72 | 222 | 1.0 | 2.0 | 0.00 | 0.00 | 0.00 | 25 | 1012.0 |
| 20260504032635 | 73 | 331 | 0.0 | 4.0 | 0.00 | 0.00 | 0.00 | 24 | 1011.9 |
| 20260504032133 | 73 | 16 | 1.0 | 4.0 | 0.00 | 0.00 | 0.00 | 24 | 1011.8 |
| 20260504031630 | 73 | 348 | 2.0 | 5.0 | 0.00 | 0.00 | 0.00 | 25 | 1011.7 |
| 20260504031126 | 74 | 352 | 2.0 | 3.0 | 0.00 | 0.00 | 0.00 | 24 | 1011.6 |
| 20260504030623 | 75 | 342 | 1.0 | 6.0 | 0.00 | 0.00 | 0.00 | 23 | 1011.7 |
| 20260504030120 | 75 | 354 | 0.0 | 4.0 | 0.00 | 0.00 | 0.00 | 23 | 1011.8 |
| 20260504025617 | 76 | 7 | 2.0 | 7.0 | 0.00 | 0.00 | 0.00 | 22 | 1011.6 |
| 20260504025113 | 77 | 19 | 3.0 | 4.0 | 0.00 | 0.00 | 0.00 | 22 | 1011.5 |
| 20260504024611 | 77 | 13 | 2.0 | 5.0 | 0.00 | 0.00 | 0.00 | 22 | 1011.6 |
| 20260504024107 | 78 | 27 | 2.0 | 5.0 | 0.00 | 0.00 | 0.00 | 22 | 1011.8 |
| 20260504023604 | 78 | 15 | 4.0 | 7.0 | 0.00 | 0.00 | 0.00 | 22 | 1011.8 |
| 20260504023100 | 79 | 24 | 4.0 | 5.0 | 0.00 | 0.00 | 0.00 | 23 | 1011.6 |
| 20260504022556 | 79 | 14 | 1.0 | 3.0 | 0.00 | 0.00 | 0.00 | 22 | 1011.4 |
| 20260504022052 | 79 | 2 | 2.0 | 3.0 | 0.00 | 0.00 | 0.00 | 22 | 1011.6 |
| 20260504021550 | 80 | 4 | 2.0 | 6.0 | 0.00 | 0.00 | 0.00 | 22 | 1011.7 |
| 20260504021047 | 80 | 357 | 1.0 | 7.0 | 0.00 | 0.00 | 0.00 | 21 | 1011.6 |
| 20260504020544 | 80 | 25 | 0.0 | 3.0 | 0.00 | 0.00 | 0.00 | 22 | 1011.7 |
| 20260504020040 | 81 | 27 | 2.0 | 3.0 | 0.00 | 0.00 | 0.00 | 22 | 1011.7 |
| 20260504015537 | 81 | 17 | 1.0 | 4.0 | 0.00 | 0.00 | 0.00 | 22 | 1011.8 |
| 20260504015032 | 80 | 26 | 2.0 | 3.0 | 0.00 | 0.00 | 0.00 | 22 | 1011.9 |
| 20260504014529 | 79 | 350 | 2.0 | 4.0 | 0.00 | 0.00 | 0.00 | 23 | 1011.7 |
| 20260504014026 | 79 | 347 | 2.0 | 6.0 | 0.00 | 0.00 | 0.00 | 22 | 1011.7 |
| 20260504013524 | 80 | 334 | 2.0 | 7.0 | 0.00 | 0.00 | 0.00 | 22 | 1011.7 |
| 20260504013021 | 82 | 314 | 1.0 | 5.0 | 0.00 | 0.00 | 0.00 | 23 | 1011.7 |
| 20260504012518 | 82 | 327 | 3.0 | 4.0 | 0.00 | 0.00 | 0.00 | 22 | 1011.8 |
| 20260504012016 | 82 | 356 | 1.0 | 5.0 | 0.00 | 0.00 | 0.00 | 22 | 1011.6 |
| 20260504011512 | 82 | 10 | 4.0 | 7.0 | 0.00 | 0.00 | 0.00 | 21 | 1011.9 |
| 20260504011008 | 82 | 339 | 5.0 | 9.0 | 0.00 | 0.00 | 0.00 | 21 | 1011.7 |
| 20260504010504 | 83 | 83 | 3.0 | 8.0 | 0.00 | 0.00 | 0.00 | 22 | 1011.8 |
| 20260504010000 | 83 | 217 | 0.0 | 5.0 | 0.00 | 0.00 | 0.00 | 22 | 1011.8 |
| 20260504005457 | 82 | 7 | 1.0 | 5.0 | 0.00 | 0.00 | 0.00 | 21 | 1012.0 |
| 20260504004954 | 83 | 339 | 5.0 | 7.0 | 0.00 | 0.00 | 0.00 | 20 | 1012.0 |
| 20260504004452 | 83 | 342 | 3.0 | 7.0 | 0.00 | 0.00 | 0.00 | 21 | 1012.2 |
| 20260504003949 | 83 | 340 | 3.0 | 9.0 | 0.00 | 0.00 | 0.00 | 21 | 1012.1 |
| 20260504003445 | 82 | 354 | 2.0 | 8.0 | 0.00 | 0.00 | 0.00 | 21 | 1012.1 |
| 20260504002942 | 82 | 320 | 6.0 | 12.0 | 0.00 | 0.00 | 0.00 | 21 | 1012.4 |
| 20260504002439 | 82 | 23 | 4.0 | 9.0 | 0.00 | 0.00 | 0.00 | 20 | 1012.1 |
| 20260504001936 | 82 | 315 | 4.0 | 8.0 | 0.00 | 0.00 | 0.00 | 20 | 1012.2 |
| 20260504001434 | 82 | 316 | 4.0 | 10.0 | 0.00 | 0.00 | 0.00 | 21 | 1012.2 |
| 20260504000930 | 83 | 352 | 5.0 | 10.0 | 0.00 | 0.00 | 0.00 | 21 | 1012.6 |
| 20260504000427 | 83 | 316 | 1.0 | 5.0 | 0.00 | 0.00 | 0.00 | 21 | 1012.6 |
| 20260503235924 | 83 | 332 | 4.0 | 7.0 | 0.00 | 0.00 | 0.00 | 21 | 1012.5 |
| 20260503235422 | 83 | 279 | 4.0 | 10.0 | 0.00 | 0.00 | 0.00 | 20 | 1012.5 |
| 20260503234920 | 83 | 308 | 7.0 | 10.0 | 0.00 | 0.00 | 0.00 | 21 | 1012.7 |
| 20260503234417 | 84 | 286 | 2.0 | 9.0 | 0.00 | 0.00 | 0.00 | 22 | 1012.7 |
| 20260503233915 | 84 | 284 | 3.0 | 8.0 | 0.00 | 0.00 | 0.00 | 20 | 1012.5 |
| 20260503233411 | 83 | 309 | 7.0 | 13.0 | 0.00 | 0.00 | 0.00 | 21 | 1012.5 |
| 20260503232907 | 85 | 287 | 2.0 | 4.0 | 0.00 | 0.00 | 0.00 | 20 | 1012.8 |
| 20260503232405 | 84 | 338 | 3.0 | 5.0 | 0.00 | 0.00 | 0.00 | 20 | 1012.7 |
| 20260503231903 | 83 | 231 | 2.0 | 9.0 | 0.00 | 0.00 | 0.00 | 20 | 1012.9 |
| 20260503231400 | 83 | 36 | 1.0 | 6.0 | 0.00 | 0.00 | 0.00 | 22 | 1012.9 |
| 20260503230855 | 83 | 12 | 7.0 | 12.0 | 0.00 | 0.00 | 0.00 | 21 | 1012.9 |
| 20260503230352 | 84 | 305 | 1.0 | 4.0 | 0.00 | 0.00 | 0.00 | 21 | 1012.9 |
| 20260503225850 | 84 | 326 | 2.0 | 11.0 | 0.00 | 0.00 | 0.00 | 21 | 1012.9 |
| 20260503225346 | 84 | 156 | 2.0 | 5.0 | 0.00 | 0.00 | 0.00 | 20 | 1012.9 |
| 20260503224842 | 83 | 309 | 0.0 | 6.0 | 0.00 | 0.00 | 0.00 | 21 | 1013.0 |
| 20260503224340 | 83 | 293 | 2.0 | 5.0 | 0.00 | 0.00 | 0.00 | 21 | 1013.2 |
| 20260503223837 | 82 | 302 | 3.0 | 6.0 | 0.00 | 0.00 | 0.00 | 22 | 1013.1 |
| 20260503223335 | 82 | 355 | 2.0 | 9.0 | 0.00 | 0.00 | 0.00 | 21 | 1013.3 |
| 20260503222830 | 83 | 273 | 8.0 | 9.0 | 0.00 | 0.00 | 0.00 | 21 | 1013.4 |
| 20260503222329 | 83 | 224 | 6.0 | 8.0 | 0.00 | 0.00 | 0.00 | 20 | 1013.3 |
| 20260503221826 | 83 | 261 | 5.0 | 8.0 | 0.00 | 0.00 | 0.00 | 21 | 1013.4 |
| 20260503221325 | 82 | 263 | 4.0 | 9.0 | 0.00 | 0.00 | 0.00 | 20 | 1013.5 |
| 20260503220821 | 83 | 232 | 5.0 | 8.0 | 0.00 | 0.00 | 0.00 | 20 | 1013.6 |
| 20260503220318 | 82 | 235 | 5.0 | 10.0 | 0.00 | 0.00 | 0.00 | 21 | 1013.6 |
| 20260503215814 | 82 | 324 | 2.0 | 5.0 | 0.00 | 0.00 | 0.00 | 22 | 1013.8 |
| 20260503215312 | 82 | 7 | 2.0 | 5.0 | 0.00 | 0.00 | 0.00 | 22 | 1013.8 |
| 20260503214810 | 82 | 120 | 3.0 | 17.0 | 0.00 | 0.00 | 0.00 | 23 | 1013.4 |
| 20260503214306 | 83 | 284 | 5.0 | 10.0 | 0.00 | 0.00 | 0.00 | 22 | 1013.5 |
| 20260503213804 | 82 | 254 | 3.0 | 11.0 | 0.00 | 0.00 | 0.00 | 22 | 1013.6 |
| 20260503213302 | 82 | 224 | 4.0 | 9.0 | 0.00 | 0.00 | 0.00 | 21 | 1013.8 |
| 20260503212758 | 82 | 192 | 2.0 | 9.0 | 0.00 | 0.00 | 0.00 | 21 | 1013.9 |
| 20260503212256 | 81 | 291 | 3.0 | 13.0 | 0.00 | 0.00 | 0.00 | 23 | 1014.3 |
| 20260503211753 | 81 | 311 | 3.0 | 8.0 | 0.00 | 0.00 | 0.00 | 23 | 1014.0 |
| 20260503211250 | 81 | 218 | 3.0 | 10.0 | 0.00 | 0.00 | 0.00 | 22 | 1014.2 |
| 20260503210744 | 80 | 294 | 3.0 | 11.0 | 0.00 | 0.00 | 0.00 | 22 | 1014.3 |
| 20260503210242 | 81 | 250 | 3.0 | 10.0 | 0.00 | 0.00 | 0.00 | 22 | 1014.3 |
| 20260503205737 | 81 | 179 | 1.0 | 4.0 | 0.00 | 0.00 | 0.00 | 22 | 1014.4 |
| 20260503205234 | 80 | 160 | 1.0 | 6.0 | 0.00 | 0.00 | 0.00 | 22 | 1014.6 |
| 20260503204730 | 80 | 258 | 2.0 | 11.0 | 0.00 | 0.00 | 0.00 | 22 | 1014.7 |
| 20260503204228 | 80 | 245 | 6.0 | 7.0 | 0.00 | 0.00 | 0.00 | 22 | 1014.9 |
| 20260503203725 | 79 | 248 | 6.0 | 11.0 | 0.00 | 0.00 | 0.00 | 22 | 1014.9 |
| 20260503203222 | 79 | 321 | 4.0 | 8.0 | 0.00 | 0.00 | 0.00 | 23 | 1014.8 |
| 20260503202719 | 79 | 207 | 2.0 | 7.0 | 0.00 | 0.00 | 0.00 | 22 | 1014.9 |
| 20260503202217 | 79 | 306 | 5.0 | 8.0 | 0.00 | 0.00 | 0.00 | 24 | 1015.0 |
| 20260503201715 | 80 | 303 | 4.0 | 8.0 | 0.00 | 0.00 | 0.00 | 24 | 1015.1 |
| 20260503201212 | 80 | 224 | 4.0 | 13.0 | 0.00 | 0.00 | 0.00 | 22 | 1015.1 |
| 20260503200708 | 80 | 237 | 2.0 | 4.0 | 0.00 | 0.00 | 0.00 | 22 | 1015.1 |
| 20260503200205 | 80 | 203 | 2.0 | 6.0 | 0.00 | 0.00 | 0.00 | 22 | 1015.0 |
| 20260503195702 | 79 | 175 | 3.0 | 5.0 | 0.00 | 0.00 | 0.00 | 25 | 1015.5 |
| 20260503195159 | 79 | 176 | 2.0 | 6.0 | 0.00 | 0.00 | 0.00 | 27 | 1015.5 |
| 20260503194655 | 78 | 117 | 0.0 | 3.0 | 0.00 | 0.00 | 0.00 | 27 | 1015.5 |
| 20260503194151 | 78 | 167 | 3.0 | 6.0 | 0.00 | 0.00 | 0.00 | 26 | 1015.6 |
| 20260503193648 | 77 | 180 | 3.0 | 4.0 | 0.00 | 0.00 | 0.00 | 25 | 1015.8 |
| 20260503193143 | 77 | 321 | 3.0 | 7.0 | 0.00 | 0.00 | 0.00 | 27 | 1015.5 |
| 20260503192639 | 77 | 103 | 2.0 | 4.0 | 0.00 | 0.00 | 0.00 | 28 | 1015.8 |
| 20260503192135 | 75 | 227 | 1.0 | 3.0 | 0.00 | 0.00 | 0.00 | 30 | 1016.0 |
| 20260503191632 | 74 | 149 | 3.0 | 5.0 | 0.00 | 0.00 | 0.00 | 29 | 1016.1 |
| 20260503191129 | 74 | 125 | 3.0 | 5.0 | 0.00 | 0.00 | 0.00 | 29 | 1016.3 |
| 20260503190626 | 73 | 99 | 3.0 | 5.0 | 0.00 | 0.00 | 0.00 | 30 | 1016.4 |
| 20260503190123 | 73 | 160 | 3.0 | 6.0 | 0.00 | 0.00 | 0.00 | 31 | 1016.3 |
| 20260503185620 | 73 | 102 | 2.0 | 4.0 | 0.00 | 0.00 | 0.00 | 30 | 1016.7 |
| 20260503185115 | 72 | 4 | 3.0 | 3.0 | 0.00 | 0.00 | 0.00 | 32 | 1016.8 |
| 20260503184610 | 72 | 84 | 3.0 | 4.0 | 0.00 | 0.00 | 0.00 | 31 | 1016.8 |
| 20260503184107 | 73 | 124 | 4.0 | 6.0 | 0.00 | 0.00 | 0.00 | 31 | 1016.9 |
| 20260503183603 | 71 | 78 | 1.0 | 5.0 | 0.00 | 0.00 | 0.00 | 32 | 1017.0 |
| 20260503183101 | 71 | 256 | 0.0 | 4.0 | 0.00 | 0.00 | 0.00 | 34 | 1017.3 |
| 20260503182559 | 71 | 179 | 1.0 | 3.0 | 0.00 | 0.00 | 0.00 | 33 | 1017.2 |
| 20260503182057 | 70 | 240 | 0.0 | 5.0 | 0.00 | 0.00 | 0.00 | 34 | 1017.5 |
| 20260503181553 | 69 | 101 | 2.0 | 3.0 | 0.00 | 0.00 | 0.00 | 34 | 1017.5 |
| 20260503181050 | 69 | 130 | 2.0 | 5.0 | 0.00 | 0.00 | 0.00 | 37 | 1017.5 |
| 20260503180547 | 68 | 127 | 2.0 | 5.0 | 0.00 | 0.00 | 0.00 | 36 | 1017.6 |
| 20260503180044 | 68 | 344 | 2.0 | 4.0 | 0.00 | 0.00 | 0.00 | 35 | 1017.6 |
| 20260503175541 | 66 | 255 | 1.0 | 4.0 | 0.00 | 0.00 | 0.00 | 36 | 1017.8 |
| 20260503175038 | 66 | 123 | 2.0 | 4.0 | 0.00 | 0.00 | 0.00 | 39 | 1018.1 |
| 20260503174535 | 65 | 126 | 2.0 | 6.0 | 0.00 | 0.00 | 0.00 | 39 | 1017.9 |
| 20260503174031 | 66 | 98 | 3.0 | 5.0 | 0.00 | 0.00 | 0.00 | 37 | 1018.1 |
| 20260503173521 | 64 | 155 | 0.0 | 5.0 | 0.00 | 0.00 | 0.00 | 38 | 1018.3 |
| 20260503173018 | 64 | 121 | 3.0 | 6.0 | 0.00 | 0.00 | 0.00 | 38 | 1018.2 |
| 20260503172516 | 64 | 212 | 0.0 | 4.0 | 0.00 | 0.00 | 0.00 | 37 | 1018.2 |
| 20260503172012 | 65 | 1 | 1.0 | 4.0 | 0.00 | 0.00 | 0.00 | 39 | 1018.3 |
| 20260503171509 | 63 | 358 | 1.0 | 3.0 | 0.00 | 0.00 | 0.00 | 40 | 1018.2 |
| 20260503171007 | 62 | 323 | 1.0 | 3.0 | 0.00 | 0.00 | 0.00 | 41 | 1018.6 |
| 20260503170503 | 62 | 218 | 2.0 | 3.0 | 0.00 | 0.00 | 0.00 | 41 | 1018.5 |
| 20260503150855 | 53 | 37 | 3.0 | 5.0 | 0.00 | 0.00 | 0.00 | 56 | 1020.2 |
| 20260503150351 | 53 | 2 | 2.0 | 3.0 | 0.00 | 0.00 | 0.00 | 55 | 1020.2 |
| 20260503131245 | 38 | 45 | 3.0 | 3.0 | 0.00 | 0.00 | 0.00 | 83 | 1020.0 |
| 20260503130742 | 37 | 55 | 2.0 | 4.0 | 0.00 | 0.00 | 0.00 | 83 | 1020.0 |
| 20260503130240 | 37 | 43 | 1.0 | 2.0 | 0.00 | 0.00 | 0.00 | 84 | 1020.1 |
| 20260503120206 | 38 | 86 | 2.0 | 4.0 | 0.00 | 0.00 | 0.00 | 82 | 1019.8 |
| 20260503110633 | 39 | 96 | 1.0 | 3.0 | 0.00 | 0.00 | 0.00 | 80 | 1020.0 |
| 20260503110130 | 40 | 67 | 2.0 | 3.0 | 0.00 | 0.00 | 0.00 | 78 | 1020.1 |